This demonstration page uses our WeatherBlox Daily Observations layout. Learn more.

Left ArrowRight Arrow

34.02893, -84.19858

Hourly Observations for May 13, 2022

Temp ( °F °C ) Dew Point ( °F °C ) Humidity (%) Winds ( mph kmh ) Pressure ( in mb ) Visibility ( mi km ) Precip ( " mm )
12:53 am 00:53 Partly Cloudy 69 20.6 57 13.9 66 66 VRB 3 6 30.02 1017 10 16 0.00 0.00
1:53 am 01:53 Cloudy 69 20.6 57 13.9 66 66 Calm 30.00 1016 10 16 0.00 0.00
2:53 am 02:53 Cloudy 67 19.4 58 14.4 73 73 VRB 3 6 29.99 1016 10 16 0.00 0.00
3:44 am 03:44 Cloudy 67 19.4 58 14.4 73 73 VRB 3 6 30.02 1016 10 16 0.00 0.00
3:53 am 03:53 Cloudy 67 19.4 58 14.4 73 73 VRB 5 7 29.99 1016 10 16 0.00 0.00
4:53 am 04:53 Cloudy 66 18.9 58 14.4 75 75 VRB 3 6 30.00 1016 10 16 0.00 0.00
5:24 am 05:24 Cloudy 66 18.9 58 14.4 75 75 VRB 3 6 30.02 1017 10 16 0.00 0.00
5:32 am 05:32 Cloudy 66 18.9 58 14.4 75 75 Calm 30.03 1017 10 16 0.00 0.00
5:53 am 05:53 Cloudy 66 18.9 58 14.4 75 75 undefined N/A 30.00 1016 10 16 0.00 0.00
6:53 am 06:53 Cloudy 65 18.3 59 15 81 81 Calm 30.02 1017 10 16 0.00 0.00
7:53 am 07:53 Cloudy 65 18.3 60 15.6 84 84 VRB 6 9 30.03 1017 10 16 0.00 0.00
8:04 am 08:04 Cloudy 65 18.3 60 15.6 84 84 ENE 8 13 30.05 1018 10 16 0.00 0.00
8:13 am 08:13 Cloudy 65 18.3 60 15.6 84 84 VRB 7 11 30.05 1018 10 16 0.00 0.00
8:53 am 08:53 Cloudy 65 18.3 60 15.6 84 84 E 7 11 30.05 1018 10 16 0.00 0.00
9:24 am 09:24 Cloudy 66 18.9 60 15.6 81 81 VRB 3 6 30.08 1019 10 16 0.00 0.00
9:53 am 09:53 Cloudy 66 18.9 60 15.6 81 81 VRB 3 6 30.06 1018 10 16 0.00 0.00
10:53 am 10:53 Cloudy 68 20 60 15.6 76 76 undefined N/A 30.05 1018 10 16 0.00 0.00
11:53 am 11:53 Cloudy 70 21.1 60 15.6 71 71 VRB 3 6 30.06 1018 10 16 0.00 0.00
12:00 pm 12:00 Cloudy 70 21.1 60 15.6 71 71 VRB 6 9 30.07 1018 10 16 0.00 0.00
12:53 pm 12:53 Mostly Cloudy 72 22.2 61 16.1 68 68 undefined N/A 30.04 1017 10 16 0.00 0.00
1:53 pm 13:53 Cloudy 74 23.3 60 15.6 62 62 VRB 5 7 30.02 1017 10 16 0.00 0.00
2:53 pm 14:53 Mostly Cloudy 74 23.3 59 15 60 60 Calm 30.01 1016 10 16 0.00 0.00
3:53 pm 15:53 Mostly Cloudy 79 26.1 59 15 50 50 Calm 29.97 1015 10 16 0.00 0.00
4:53 pm 16:53 Partly Cloudy 78 25.6 60 15.6 54 54 VRB 5 7 29.94 1014 10 16 0.00 0.00
5:53 pm 17:53 Partly Cloudy 78 25.6 60 15.6 54 54 VRB 3 6 29.93 1014 10 16 0.00 0.00
6:53 pm 18:53 Sunny 77 25 59 15 54 54 VRB 3 6 29.94 1014 10 16 0.00 0.00
7:53 pm 19:53 Cloudy with Thunderstorms 69 20.6 62 16.7 78 78 ESE 3 6 29.98 1015 3 5 0.05 1.27
8:07 pm 20:07 Cloudy with Light Rain 69 20.6 63 17.2 81 81 Calm 29.98 1015 7 11 0.02 0.51
8:53 pm 20:53 Clear 66 18.9 65 18.3 96 96 Calm 29.99 1016 10 16 0.02 0.51
9:53 pm 21:53 Mostly Clear 66 18.9 62 16.7 87 87 Calm 30.01 1016 10 16 0.00 0.00
10:53 pm 22:53 Partly Cloudy 66 18.9 62 16.7 87 87 E 3 6 30.01 1016 10 16 0.00 0.00
11:53 pm 23:53 Clear 63 17.2 61 16.1 93 93 Calm 30.01 1016 10 16 0.00 0.00

Powered by AerisWeather